IRIDIUM 33 DEB, 34538

Orbit data source: Space-Track

IRIDIUM 33 DEB, 34538 is space debris in LEO originally from a launch on Sun, 14 Sep 1997 UTC launched from the Tyuratam Missile And Space Complex (TTMTR). The debris from Iridium 33, an American commercial communications satellite, has been tracked extensively since its accidental collision with the defunct Russian satellite Cosmos 2251 in 2009. This event, occurring at high speed in low Earth orbit (LEO), generated thousands of pieces of space debris, significantly increasing the risk of further collisions. The Iridium 33 debris cloud has impacted space traffic management and orbital debris mitigation strategies, making it a subject of ongoing study in space situational awareness.

Loading next visibility...
Identifier
34538, 1997-051JF
Orbit
LEO
Country
Flag of USUS
Related business
Manufacturer
Unknown
Mission
Spacecraft
Bus & Motor
Unknown
Mass
Unknown
Launch date (UTC)
1997-09-14 (28 years ago)
Launch vehicle
Unknown
Launch site
Tyuratam Missile And Space Complex (TTMTR)
Object type
Payload
Rocket body
Debris
Shape & HBR
Unknown shape, 0.1 m
Radar Cross Section
Small (<0.1 m²)

Expand to show TLE details & history
Last TLE update: 1 day ago

TLE from 1 day ago
0 IRIDIUM 33 DEB
1 34538U 97051JF  25306.45244632  .00003215  00000-0  96102-3 0  9993
2 34538  86.2811  23.1858 0036672  98.0415  29.7051 14.42293354871758
Epoch: 2025-11-02T10:51Z
TLE epoch observation values (Epoch: 2025-11-02T10:51:31.362Z)
Latitude
51.98959°
Longitude
-6.40763°
Altitude
736.753 km
Speed
7.503 km/s
True Right ascension
13h 13m 45s
True Declination
51° 49' 20"
Sunlit
Object was in daylight at epoch
Visualization orbit readout
Latitude
Unknown
Longitude
Unknown
Altitude
Unknown
Speed
Unknown
Apparent Right ascension
Unknown
Apparent Declination
Unknown
Sunlit
N/A
Visualization observer readout
Local Sidereal Time
14:21:10
Azimuth
Unknown
Elevation
Unknown
Doppler factor
Unknown
Orbital elements
Apogee altitude
774.019 km
Perigee altitude
721.754 km
Semi-major axis
7,126.024 km
Eccentricity
0.00367
Inclination
86.2811°
RAAN
23.1858°
Arg. of periapsis
98.0415°
True anomaly
29.91417°
Mean anomaly
29.7051°
Eccentric anomaly
29.80955°
Mean motion
3.60805 °/min
Orbital period
99.78 mins
BSTAR
0.00096102
Loading maneuver chart data...
Computing Atmospheric mass density...
Loading historical data...
Loading historical data...
Loading historical data...
Loading historical data...
Loading historical data...
Loading historical data...
Loading historical data...

Documentation

Showing up to 5 results
|